Location: Dennehotso
(36.8461°N, 109.8435°W)
Time: 15:28:19
(UTC+00:00)

Envisat - Pass Details

Date: 11 March 2021
Orbit: 764 x 766 km, 98.1° (Epoch: 17 April)

Event Time Altitude Azimuth Distance (km) Brightness Sun altitude
Rises 11:45:19 0° 32° (NNE) 3,236 6.9 -22.8°
Reaches altitude 10° 11:48:28 10° 53° (NE) 2,304 6.4 -22.2°
Maximum altitude 11:51:40 17° 92° (E) 1,878 5.9 -21.5°
Drops below altitude 10° 11:54:51 10° 132° (SE) 2,294 5.9 -20.9°
Sets 11:57:58 0° 152° (SSE) 3,214 6.4 -20.3°
